Time,TemperatureF,DewpointF,PressureIn,WindDirection,WindDirectionDegrees,WindSpeedMPH,WindSpeedGustMPH,Humidity,HourlyPrecipIn,Conditions,Clouds,dailyrainin,SoftwareType,DateUTC
2013-06-06 00:07:00,72.5,70.4,29.91,SSE,163,0.0,0.0,93,0.00,,,0.00,Wunderground v.1.15,2013-06-06 04:07:00,
2013-06-06 00:12:00,72.4,70.3,29.91,SSE,167,0.0,5.0,93,0.00,,,0.00,Wunderground v.1.15,2013-06-06 04:12:00,
2013-06-06 00:17:00,72.4,70.6,29.91,SSE,167,0.0,0.0,94,0.00,,,0.00,Wunderground v.1.15,2013-06-06 04:17:00,
2013-06-06 00:22:00,72.4,70.6,29.91,SSE,167,0.0,0.0,94,0.00,,,0.00,Wunderground v.1.15,2013-06-06 04:22:00,
2013-06-06 00:27:00,72.3,70.2,29.91,SSE,167,0.0,0.0,93,0.00,,,0.00,Wunderground v.1.15,2013-06-06 04:27:00,
2013-06-06 00:32:00,72.2,70.1,29.91,SSE,167,0.0,0.0,93,0.00,,,0.00,Wunderground v.1.15,2013-06-06 04:32:00,
2013-06-06 00:38:00,72.2,70.1,29.91,SSE,167,0.0,0.0,93,0.00,,,0.00,Wunderground v.1.15,2013-06-06 04:38:00,
2013-06-06 00:43:00,72.1,70.0,29.90,SSE,167,0.0,0.0,93,0.00,,,0.00,Wunderground v.1.15,2013-06-06 04:43:00,
2013-06-06 00:48:00,72.0,69.9,29.90,SSE,167,0.0,0.0,93,0.00,,,0.00,Wunderground v.1.15,2013-06-06 04:48:00,
2013-06-06 00:53:00,71.9,70.1,29.90,SSE,167,0.0,0.0,94,0.00,,,0.00,Wunderground v.1.15,2013-06-06 04:53:00,
2013-06-06 00:58:00,71.8,70.0,29.89,SSE,167,0.0,0.0,94,0.00,,,0.00,Wunderground v.1.15,2013-06-06 04:58:00,
2013-06-06 01:03:00,71.7,69.9,29.90,SSE,167,0.0,0.0,94,0.00,,,0.00,Wunderground v.1.15,2013-06-06 05:03:00,
2013-06-06 01:09:00,71.7,69.9,29.90,SSE,167,0.0,0.0,94,0.00,,,0.00,Wunderground v.1.15,2013-06-06 05:09:00,
2013-06-06 01:14:00,71.7,69.9,29.89,SSE,167,0.0,0.0,94,0.00,,,0.00,Wunderground v.1.15,2013-06-06 05:14:00,
2013-06-06 01:19:00,71.7,69.9,29.89,SSE,167,0.0,0.0,94,0.00,,,0.00,Wunderground v.1.15,2013-06-06 05:19:00,
2013-06-06 01:24:00,71.7,70.2,29.89,SSE,167,0.0,0.0,95,0.00,,,0.00,Wunderground v.1.15,2013-06-06 05:24:00,
2013-06-06 01:30:00,71.7,70.2,29.90,SSE,167,0.0,0.0,95,0.00,,,0.00,Wunderground v.1.15,2013-06-06 05:30:00,
2013-06-06 01:35:00,71.7,70.2,29.89,SSE,167,0.0,0.0,95,0.00,,,0.00,Wunderground v.1.15,2013-06-06 05:35:00,
2013-06-06 01:40:00,71.7,70.2,29.89,SSE,167,4.0,4.0,95,0.00,,,0.00,Wunderground v.1.15,2013-06-06 05:40:00,
2013-06-06 01:45:00,71.8,70.0,29.89,SSE,167,0.0,0.0,94,0.00,,,0.00,Wunderground v.1.15,2013-06-06 05:45:00,
2013-06-06 01:51:00,71.8,70.0,29.89,SSE,167,0.0,0.0,94,0.00,,,0.00,Wunderground v.1.15,2013-06-06 05:51:00,
2013-06-06 01:56:00,71.7,69.9,29.89,SSE,167,0.0,0.0,94,0.00,,,0.00,Wunderground v.1.15,2013-06-06 05:56:00,
2013-06-06 02:01:00,71.8,70.0,29.89,SSE,167,0.0,0.0,94,0.00,,,0.00,Wunderground v.1.15,2013-06-06 06:01:00,
2013-06-06 02:06:00,71.8,70.0,29.89,SSE,167,0.0,0.0,94,0.00,,,0.00,Wunderground v.1.15,2013-06-06 06:06:00,
2013-06-06 02:12:00,71.8,70.0,29.88,SSE,167,0.0,0.0,94,0.00,,,0.00,Wunderground v.1.15,2013-06-06 06:12:00,
2013-06-06 02:17:00,71.7,69.9,29.88,SSE,167,0.0,0.0,94,0.00,,,0.00,Wunderground v.1.15,2013-06-06 06:17:00,
2013-06-06 02:22:00,71.7,69.9,29.88,SSE,167,0.0,0.0,94,0.00,,,0.00,Wunderground v.1.15,2013-06-06 06:22:00,
2013-06-06 02:27:00,71.7,69.9,29.88,SSE,167,0.0,1.0,94,0.00,,,0.00,Wunderground v.1.15,2013-06-06 06:27:00,
2013-06-06 02:32:00,71.7,69.9,29.88,SSE,167,0.0,1.0,94,0.00,,,0.00,Wunderground v.1.15,2013-06-06 06:32:00,
2013-06-06 02:37:00,71.8,70.0,29.88,South,174,4.0,5.0,94,0.00,,,0.00,Wunderground v.1.15,2013-06-06 06:37:00,
2013-06-06 02:42:00,71.8,70.0,29.87,South,178,2.0,7.0,94,0.00,,,0.00,Wunderground v.1.15,2013-06-06 06:42:00,
2013-06-06 02:47:00,71.9,70.1,29.88,SSW,194,3.0,5.0,94,0.00,,,0.00,Wunderground v.1.15,2013-06-06 06:47:00,
2013-06-06 02:52:00,71.9,70.1,29.87,South,179,4.0,6.0,94,0.00,,,0.00,Wunderground v.1.15,2013-06-06 06:52:00,
2013-06-06 02:57:00,71.8,70.0,29.87,SSW,201,5.0,5.0,94,0.00,,,0.00,Wunderground v.1.15,2013-06-06 06:57:00,
2013-06-06 03:02:00,71.8,70.0,29.87,SSW,201,3.0,5.0,94,0.00,,,0.00,Wunderground v.1.15,2013-06-06 07:02:00,
2013-06-06 03:07:00,71.8,70.0,29.87,SSW,201,2.0,5.0,94,0.00,,,0.00,Wunderground v.1.15,2013-06-06 07:07:00,
2013-06-06 03:12:00,71.8,70.0,29.86,SSW,201,4.0,5.0,94,0.00,,,0.00,Wunderground v.1.15,2013-06-06 07:12:00,
2013-06-06 03:17:00,71.8,70.0,29.86,SSW,201,3.0,4.0,94,0.00,,,0.00,Wunderground v.1.15,2013-06-06 07:17:00,
2013-06-06 03:22:00,71.8,70.0,29.86,SSW,201,4.0,5.0,94,0.00,,,0.00,Wunderground v.1.15,2013-06-06 07:22:00,
2013-06-06 03:27:00,71.8,70.0,29.86,South,184,2.0,5.0,94,0.00,,,0.00,Wunderground v.1.15,2013-06-06 07:27:00,
2013-06-06 03:32:00,71.7,69.9,29.85,South,188,3.0,5.0,94,0.00,,,0.00,Wunderground v.1.15,2013-06-06 07:32:00,
2013-06-06 03:37:00,71.6,70.1,29.85,South,184,4.0,5.0,95,0.00,,,0.00,Wunderground v.1.15,2013-06-06 07:37:00,
2013-06-06 03:42:00,71.5,70.0,29.85,South,179,1.0,6.0,95,0.00,,,0.00,Wunderground v.1.15,2013-06-06 07:42:00,
2013-06-06 03:47:00,71.4,69.9,29.85,South,180,2.0,4.0,95,0.00,,,0.00,Wunderground v.1.15,2013-06-06 07:47:00,
2013-06-06 03:52:00,71.4,69.9,29.84,South,180,1.0,4.0,95,0.00,,,0.00,Wunderground v.1.15,2013-06-06 07:52:00,
2013-06-06 03:57:00,71.4,69.9,29.84,South,180,0.0,3.0,95,0.00,,,0.00,Wunderground v.1.15,2013-06-06 07:57:00,
2013-06-06 04:02:00,71.3,69.8,29.83,South,180,0.0,3.0,95,0.00,,,0.00,Wunderground v.1.15,2013-06-06 08:02:00,
2013-06-06 04:07:00,71.3,69.8,29.83,South,180,0.0,1.0,95,0.00,,,0.00,Wunderground v.1.15,2013-06-06 08:07:00,
2013-06-06 04:12:00,71.2,69.7,29.83,South,180,0.0,1.0,95,0.00,,,0.00,Wunderground v.1.15,2013-06-06 08:12:00,
2013-06-06 04:17:00,71.2,69.7,29.83,South,180,0.0,0.0,95,0.00,,,0.00,Wunderground v.1.15,2013-06-06 08:17:00,
2013-06-06 04:22:00,71.2,70.0,29.83,South,180,0.0,0.0,96,0.00,,,0.00,Wunderground v.1.15,2013-06-06 08:22:00,
2013-06-06 04:27:00,71.2,70.0,29.83,South,180,2.0,4.0,96,0.00,,,0.00,Wunderground v.1.15,2013-06-06 08:27:00,
2013-06-06 04:32:00,71.1,69.9,29.82,South,180,4.0,4.0,96,0.00,,,0.00,Wunderground v.1.15,2013-06-06 08:32:00,
2013-06-06 04:37:00,71.1,69.9,29.82,South,178,4.0,6.0,96,0.00,,,0.00,Wunderground v.1.15,2013-06-06 08:37:00,
2013-06-06 04:42:00,71.1,69.9,29.83,South,181,2.0,7.0,96,0.00,,,0.00,Wunderground v.1.15,2013-06-06 08:42:00,
2013-06-06 04:47:00,71.0,69.8,29.83,South,181,2.0,5.0,96,0.00,,,0.00,Wunderground v.1.15,2013-06-06 08:47:00,
2013-06-06 04:52:00,71.0,69.8,29.83,South,181,3.0,5.0,96,0.00,,,0.00,Wunderground v.1.15,2013-06-06 08:52:00,
2013-06-06 04:57:00,71.0,69.8,29.83,South,181,3.0,5.0,96,0.00,,,0.00,Wunderground v.1.15,2013-06-06 08:57:00,
2013-06-06 05:02:00,71.0,69.8,29.82,South,183,3.0,6.0,96,0.00,,,0.00,Wunderground v.1.15,2013-06-06 09:02:00,
2013-06-06 05:07:00,70.9,69.7,29.83,South,188,2.0,6.0,96,0.00,,,0.00,Wunderground v.1.15,2013-06-06 09:07:00,
2013-06-06 05:13:00,70.8,69.6,29.83,South,189,5.0,8.0,96,0.00,,,0.00,Wunderground v.1.15,2013-06-06 09:13:00,
2013-06-06 05:18:00,70.8,69.6,29.83,South,184,4.0,8.0,96,0.00,,,0.00,Wunderground v.1.15,2013-06-06 09:18:00,
2013-06-06 05:22:00,70.8,69.6,29.83,South,184,4.0,8.0,96,0.00,,,0.00,Wunderground v.1.15,2013-06-06 09:22:00,
2013-06-06 05:27:00,70.8,69.6,29.83,South,178,5.0,7.0,96,0.00,,,0.00,Wunderground v.1.15,2013-06-06 09:27:00,
2013-06-06 05:33:00,70.8,69.6,29.83,SW,222,5.0,7.0,96,0.00,,,0.00,Wunderground v.1.15,2013-06-06 09:33:00,
2013-06-06 05:38:00,70.8,69.6,29.83,West,266,6.0,7.0,96,0.00,,,0.00,Wunderground v.1.15,2013-06-06 09:38:00,
2013-06-06 05:43:00,70.8,69.6,29.83,South,189,4.0,7.0,96,0.00,,,0.00,Wunderground v.1.15,2013-06-06 09:43:00,
2013-06-06 05:48:00,70.8,69.6,29.83,SSW,197,4.0,6.0,96,0.00,,,0.00,Wunderground v.1.15,2013-06-06 09:48:00,
2013-06-06 05:53:00,70.8,69.6,29.83,South,180,6.0,6.0,96,0.00,,,0.00,Wunderground v.1.15,2013-06-06 09:53:00,
2013-06-06 05:58:00,70.7,69.5,29.83,SSW,209,5.0,7.0,96,0.00,,,0.00,Wunderground v.1.15,2013-06-06 09:58:00,
2013-06-06 06:03:00,70.7,69.5,29.83,South,191,2.0,7.0,96,0.00,,,0.00,Wunderground v.1.15,2013-06-06 10:03:00,
2013-06-06 06:08:00,70.7,69.5,29.83,SSW,193,4.0,6.0,96,0.00,,,0.00,Wunderground v.1.15,2013-06-06 10:08:00,
2013-06-06 06:13:00,70.7,69.8,29.83,SSW,196,2.0,6.0,97,0.00,,,0.00,Wunderground v.1.15,2013-06-06 10:13:00,
2013-06-06 06:18:00,70.7,69.8,29.83,SSW,196,2.0,4.0,97,0.00,,,0.00,Wunderground v.1.15,2013-06-06 10:18:00,
2013-06-06 06:23:00,70.7,69.8,29.83,SSW,196,0.0,1.0,97,0.00,,,0.00,Wunderground v.1.15,2013-06-06 10:23:00,
2013-06-06 06:28:00,70.7,69.8,29.83,SSW,196,0.0,1.0,97,0.00,,,0.00,Wunderground v.1.15,2013-06-06 10:28:00,
2013-06-06 06:33:00,70.7,69.8,29.83,SSW,196,2.0,2.0,97,0.00,,,0.00,Wunderground v.1.15,2013-06-06 10:33:00,
2013-06-06 06:39:00,70.7,69.8,29.83,SSW,196,2.0,3.0,97,0.00,,,0.00,Wunderground v.1.15,2013-06-06 10:39:00,
2013-06-06 06:44:00,70.8,69.9,29.83,South,189,2.0,2.0,97,0.00,,,0.00,Wunderground v.1.15,2013-06-06 10:44:00,
2013-06-06 06:49:00,70.8,69.9,29.83,South,181,2.0,4.0,97,0.00,,,0.00,Wunderground v.1.15,2013-06-06 10:49:00,
2013-06-06 06:54:00,70.8,69.9,29.83,South,180,4.0,4.0,97,0.00,,,0.00,Wunderground v.1.15,2013-06-06 10:54:00,
2013-06-06 06:59:00,70.8,69.9,29.84,South,177,1.0,5.0,97,0.00,,,0.00,Wunderground v.1.15,2013-06-06 10:59:00,
2013-06-06 07:04:00,71.0,70.1,29.83,South,178,0.0,2.0,97,0.00,,,0.00,Wunderground v.1.15,2013-06-06 11:04:00,
2013-06-06 07:09:00,71.1,70.2,29.84,South,178,0.0,2.0,97,0.00,,,0.00,Wunderground v.1.15,2013-06-06 11:09:00,
2013-06-06 07:14:00,71.3,70.4,29.83,South,178,0.0,0.0,97,0.00,,,0.00,Wunderground v.1.15,2013-06-06 11:14:00,
2013-06-06 07:19:00,71.3,70.4,29.84,South,178,2.0,5.0,97,0.00,,,0.00,Wunderground v.1.15,2013-06-06 11:19:00,
2013-06-06 07:24:00,71.3,70.1,29.84,South,178,5.0,5.0,96,0.00,,,0.00,Wunderground v.1.15,2013-06-06 11:24:00,
2013-06-06 07:29:00,71.4,70.2,29.84,South,178,1.0,5.0,96,0.00,,,0.00,Wunderground v.1.15,2013-06-06 11:29:00,
2013-06-06 07:34:00,71.4,70.2,29.84,South,178,1.0,2.0,96,0.00,,,0.00,Wunderground v.1.15,2013-06-06 11:34:00,
2013-06-06 07:39:00,71.5,70.3,29.84,South,178,0.0,4.0,96,0.00,,,0.00,Wunderground v.1.15,2013-06-06 11:39:00,
2013-06-06 07:44:00,71.5,70.3,29.84,South,178,1.0,5.0,96,0.00,,,0.00,Wunderground v.1.15,2013-06-06 11:44:00,
2013-06-06 07:49:00,71.6,70.4,29.83,South,178,0.0,5.0,96,0.00,,,0.00,Wunderground v.1.15,2013-06-06 11:49:00,
2013-06-06 07:54:00,71.8,70.6,29.83,South,178,2.0,4.0,96,0.00,,,0.00,Wunderground v.1.15,2013-06-06 11:54:00,
2013-06-06 07:59:00,71.9,70.7,29.83,South,178,2.0,5.0,96,0.00,,,0.01,Wunderground v.1.15,2013-06-06 11:59:00,
2013-06-06 08:04:00,72.0,70.8,29.83,South,178,1.0,4.0,96,0.00,,,0.01,Wunderground v.1.15,2013-06-06 12:04:00,
2013-06-06 08:09:00,72.2,71.0,29.83,South,178,4.0,5.0,96,0.00,,,0.01,Wunderground v.1.15,2013-06-06 12:09:00,
2013-06-06 08:14:00,72.3,71.1,29.83,SW,232,3.0,6.0,96,0.00,,,0.01,Wunderground v.1.15,2013-06-06 12:14:00,
2013-06-06 08:19:00,72.5,71.0,29.84,SW,233,3.0,6.0,95,0.00,,,0.01,Wunderground v.1.15,2013-06-06 12:19:00,
2013-06-06 08:24:00,72.6,71.1,29.84,WSW,245,4.0,5.0,95,0.00,,,0.01,Wunderground v.1.15,2013-06-06 12:24:00,
2013-06-06 08:29:00,72.7,71.2,29.84,SW,214,3.0,6.0,95,0.00,,,0.01,Wunderground v.1.15,2013-06-06 12:29:00,
2013-06-06 08:34:00,72.9,71.4,29.84,SSW,212,6.0,6.0,95,0.00,,,0.01,Wunderground v.1.15,2013-06-06 12:34:00,
2013-06-06 08:39:00,73.0,71.2,29.84,WSW,238,3.0,7.0,94,0.00,,,0.01,Wunderground v.1.15,2013-06-06 12:39:00,
2013-06-06 08:44:00,73.3,71.5,29.83,SSW,202,4.0,5.0,94,0.00,,,0.01,Wunderground v.1.15,2013-06-06 12:44:00,
2013-06-06 08:49:00,73.7,71.9,29.83,SSW,200,1.0,5.0,94,0.00,,,0.01,Wunderground v.1.15,2013-06-06 12:49:00,
2013-06-06 08:54:00,73.8,71.3,29.84,SW,228,3.0,4.0,92,0.00,,,0.01,Wunderground v.1.15,2013-06-06 12:54:00,
2013-06-06 08:59:00,73.7,70.9,29.84,WSW,253,5.0,7.0,91,0.00,,,0.01,Wunderground v.1.15,2013-06-06 12:59:00,
2013-06-06 09:04:00,73.7,71.2,29.84,SW,232,0.0,3.0,92,0.00,,,0.01,Wunderground v.1.15,2013-06-06 13:04:00,
2013-06-06 09:09:00,73.8,71.6,29.84,SW,229,0.0,4.0,93,0.00,,,0.01,Wunderground v.1.15,2013-06-06 13:09:00,
2013-06-06 09:14:00,73.8,71.6,29.84,SW,229,1.0,3.0,93,0.00,,,0.01,Wunderground v.1.15,2013-06-06 13:14:00,
2013-06-06 09:19:00,73.8,71.3,29.85,SW,236,1.0,5.0,92,0.00,,,0.01,Wunderground v.1.15,2013-06-06 13:19:00,
2013-06-06 09:24:00,73.8,71.3,29.84,WSW,244,0.0,2.0,92,0.00,,,0.01,Wunderground v.1.15,2013-06-06 13:24:00,
2013-06-06 09:29:00,73.6,71.1,29.84,WSW,246,2.0,5.0,92,0.00,,,0.01,Wunderground v.1.15,2013-06-06 13:29:00,
2013-06-06 09:34:00,73.6,71.1,29.84,WSW,246,0.0,1.0,92,0.00,,,0.01,Wunderground v.1.15,2013-06-06 13:34:00,
2013-06-06 09:39:00,73.7,71.5,29.84,WSW,246,2.0,3.0,93,0.00,,,0.01,Wunderground v.1.15,2013-06-06 13:39:00,
2013-06-06 09:44:00,73.6,71.1,29.84,WSW,246,0.0,2.0,92,0.00,,,0.01,Wunderground v.1.15,2013-06-06 13:44:00,
2013-06-06 09:49:00,73.6,71.1,29.85,WSW,246,2.0,3.0,92,0.00,,,0.01,Wunderground v.1.15,2013-06-06 13:49:00,
2013-06-06 09:54:00,73.6,71.1,29.85,WSW,246,2.0,4.0,92,0.00,,,0.01,Wunderground v.1.15,2013-06-06 13:54:00,
2013-06-06 09:59:00,73.5,71.0,29.84,WSW,245,3.0,4.0,92,0.00,,,0.01,Wunderground v.1.15,2013-06-06 13:59:00,
2013-06-06 10:04:00,73.6,71.1,29.85,SW,228,3.0,3.0,92,0.00,,,0.01,Wunderground v.1.15,2013-06-06 14:04:00,
2013-06-06 10:09:00,73.6,71.1,29.85,SW,228,0.0,4.0,92,0.00,,,0.01,Wunderground v.1.15,2013-06-06 14:09:00,
2013-06-06 10:15:00,73.6,71.1,29.85,SW,227,2.0,4.0,92,0.00,,,0.01,Wunderground v.1.15,2013-06-06 14:15:00,
2013-06-06 10:20:00,73.7,71.2,29.85,SW,227,2.0,4.0,92,0.00,,,0.01,Wunderground v.1.15,2013-06-06 14:20:00,
2013-06-06 10:25:00,73.8,71.0,29.85,SW,227,4.0,6.0,91,0.00,,,0.01,Wunderground v.1.15,2013-06-06 14:25:00,
2013-06-06 10:30:00,73.9,71.1,29.85,SW,218,2.0,7.0,91,0.00,,,0.01,Wunderground v.1.15,2013-06-06 14:30:00,
2013-06-06 10:35:00,74.1,71.3,29.85,SSW,203,7.0,7.0,91,0.00,,,0.01,Wunderground v.1.15,2013-06-06 14:35:00,
2013-06-06 10:40:00,74.3,71.2,29.85,SW,235,2.0,7.0,90,0.00,,,0.01,Wunderground v.1.15,2013-06-06 14:40:00,
2013-06-06 10:45:00,74.4,71.3,29.85,WSW,250,2.0,6.0,90,0.00,,,0.01,Wunderground v.1.15,2013-06-06 14:45:00,
2013-06-06 10:50:00,74.6,71.5,29.85,SSW,207,4.0,6.0,90,0.00,,,0.01,Wunderground v.1.15,2013-06-06 14:50:00,
2013-06-06 10:55:00,74.6,71.5,29.86,SW,214,5.0,5.0,90,0.00,,,0.01,Wunderground v.1.15,2013-06-06 14:55:00,
2013-06-06 11:00:00,74.7,71.6,29.86,SW,217,2.0,5.0,90,0.00,,,0.01,Wunderground v.1.15,2013-06-06 15:00:00,
2013-06-06 11:05:00,74.6,71.1,29.86,West,261,4.0,7.0,89,0.00,,,0.01,Wunderground v.1.15,2013-06-06 15:05:00,
2013-06-06 11:10:00,74.6,71.1,29.86,SW,224,5.0,9.0,89,0.00,,,0.01,Wunderground v.1.15,2013-06-06 15:10:00,
2013-06-06 11:16:00,74.6,71.1,29.87,SW,222,4.0,6.0,89,0.00,,,0.01,Wunderground v.1.15,2013-06-06 15:16:00,
2013-06-06 11:21:00,74.8,70.7,29.87,WSW,240,4.0,10.0,87,0.00,,,0.01,Wunderground v.1.15,2013-06-06 15:21:00,
2013-06-06 11:26:00,74.7,70.9,29.87,SW,214,5.0,10.0,88,0.00,,,0.01,Wunderground v.1.15,2013-06-06 15:26:00,
2013-06-06 11:32:00,74.2,70.1,29.86,SW,234,5.0,10.0,87,0.00,,,0.01,Wunderground v.1.15,2013-06-06 15:32:00,
2013-06-06 11:37:00,73.8,70.0,29.86,WSW,242,6.0,11.0,88,0.00,,,0.01,Wunderground v.1.15,2013-06-06 15:37:00,
2013-06-06 11:42:00,73.8,70.4,29.86,SSW,209,5.0,11.0,89,0.00,,,0.01,Wunderground v.1.15,2013-06-06 15:42:00,
2013-06-06 11:47:00,74.0,70.2,29.86,SW,230,4.0,6.0,88,0.00,,,0.01,Wunderground v.1.15,2013-06-06 15:47:00,
2013-06-06 11:52:00,74.2,70.1,29.86,SW,223,5.0,7.0,87,0.00,,,0.01,Wunderground v.1.15,2013-06-06 15:52:00,
2013-06-06 11:57:00,74.4,70.3,29.86,SW,220,5.0,8.0,87,0.00,,,0.01,Wunderground v.1.15,2013-06-06 15:57:00,
2013-06-06 12:02:00,74.6,69.8,29.87,SW,225,3.0,10.0,85,0.00,,,0.01,Wunderground v.1.15,2013-06-06 16:02:00,
2013-06-06 12:07:00,74.9,70.8,29.87,SW,222,7.0,7.0,87,0.00,,,0.01,Wunderground v.1.15,2013-06-06 16:07:00,
2013-06-06 12:12:00,74.5,70.0,29.87,SSW,197,7.0,9.0,86,0.00,,,0.01,Wunderground v.1.15,2013-06-06 16:12:00,
2013-06-06 12:17:00,73.9,69.8,29.86,SW,217,6.0,12.0,87,0.00,,,0.01,Wunderground v.1.15,2013-06-06 16:17:00,
2013-06-06 12:22:00,73.2,69.8,29.87,SW,234,5.0,12.0,89,0.00,,,0.01,Wunderground v.1.15,2013-06-06 16:22:00,
2013-06-06 12:27:00,72.8,70.0,29.87,SW,220,4.0,7.0,91,0.00,,,0.02,Wunderground v.1.15,2013-06-06 16:27:00,
2013-06-06 12:32:00,72.7,70.2,29.87,SW,226,5.0,7.0,92,0.00,,,0.02,Wunderground v.1.15,2013-06-06 16:32:00,
2013-06-06 12:37:00,72.4,69.9,29.87,SSW,211,4.0,7.0,92,0.00,,,0.02,Wunderground v.1.15,2013-06-06 16:37:00,
2013-06-06 12:42:00,72.3,69.8,29.87,SW,216,6.0,8.0,92,0.00,,,0.02,Wunderground v.1.15,2013-06-06 16:42:00,
2013-06-06 12:47:00,72.2,70.1,29.86,SSW,206,4.0,5.0,93,0.00,,,0.02,Wunderground v.1.15,2013-06-06 16:47:00,
2013-06-06 12:52:00,72.0,69.9,29.86,WSW,238,2.0,7.0,93,0.00,,,0.02,Wunderground v.1.15,2013-06-06 16:52:00,
2013-06-06 12:57:00,71.9,70.1,29.86,SW,220,3.0,5.0,94,0.00,,,0.03,Wunderground v.1.15,2013-06-06 16:57:00,
2013-06-06 13:02:00,71.8,69.7,29.86,SW,220,2.0,5.0,93,0.00,,,0.03,Wunderground v.1.15,2013-06-06 17:02:00,
2013-06-06 13:07:00,71.9,70.1,29.85,SW,220,0.0,4.0,94,0.00,,,0.03,Wunderground v.1.15,2013-06-06 17:07:00,
2013-06-06 13:12:00,72.0,70.2,29.85,SW,220,0.0,4.0,94,0.00,,,0.03,Wunderground v.1.15,2013-06-06 17:12:00,
2013-06-06 13:17:00,72.1,70.3,29.84,SW,220,0.0,1.0,94,0.00,,,0.03,Wunderground v.1.15,2013-06-06 17:17:00,
2013-06-06 13:22:00,72.3,70.2,29.84,SW,220,0.0,1.0,93,0.00,,,0.03,Wunderground v.1.15,2013-06-06 17:22:00,
2013-06-06 13:28:00,72.4,70.3,29.84,SW,220,0.0,0.0,93,0.00,,,0.03,Wunderground v.1.15,2013-06-06 17:28:00,
2013-06-06 13:33:00,72.5,70.4,29.84,SW,220,0.0,0.0,93,0.00,,,0.03,Wunderground v.1.15,2013-06-06 17:33:00,
2013-06-06 13:38:00,72.6,70.1,29.83,SW,220,0.0,0.0,92,0.00,,,0.03,Wunderground v.1.15,2013-06-06 17:38:00,
2013-06-06 13:43:00,72.9,70.8,29.83,SW,220,0.0,0.0,93,0.00,,,0.03,Wunderground v.1.15,2013-06-06 17:43:00,
2013-06-06 13:48:00,73.1,70.6,29.83,SW,221,2.0,5.0,92,0.00,,,0.03,Wunderground v.1.15,2013-06-06 17:48:00,
2013-06-06 13:53:00,73.4,70.6,29.83,SW,220,3.0,5.0,91,0.00,,,0.03,Wunderground v.1.15,2013-06-06 17:53:00,
2013-06-06 13:58:00,73.6,70.5,29.83,WSW,239,1.0,6.0,90,0.00,,,0.03,Wunderground v.1.15,2013-06-06 17:58:00,
2013-06-06 14:03:00,73.9,70.8,29.83,WSW,238,3.0,6.0,90,0.00,,,0.03,Wunderground v.1.15,2013-06-06 18:03:00,
2013-06-06 14:08:00,74.0,70.6,29.83,SSW,209,5.0,5.0,89,0.00,,,0.03,Wunderground v.1.15,2013-06-06 18:08:00,
2013-06-06 14:13:00,74.2,70.4,29.82,SW,232,2.0,7.0,88,0.00,,,0.03,Wunderground v.1.15,2013-06-06 18:13:00,
2013-06-06 14:18:00,74.3,70.8,29.82,SW,220,5.0,7.0,89,0.00,,,0.03,Wunderground v.1.15,2013-06-06 18:18:00,
2013-06-06 14:23:00,74.5,70.7,29.82,SW,215,4.0,7.0,88,0.00,,,0.03,Wunderground v.1.15,2013-06-06 18:23:00,
2013-06-06 14:28:00,74.6,70.8,29.82,SW,214,4.0,6.0,88,0.00,,,0.03,Wunderground v.1.15,2013-06-06 18:28:00,
2013-06-06 14:33:00,74.7,71.2,29.82,SW,214,4.0,6.0,89,0.00,,,0.03,Wunderground v.1.15,2013-06-06 18:33:00,
2013-06-06 14:38:00,74.7,70.9,29.81,SW,217,4.0,6.0,88,0.00,,,0.03,Wunderground v.1.15,2013-06-06 18:38:00,
2013-06-06 14:43:00,74.8,71.0,29.81,South,183,4.0,6.0,88,0.00,,,0.03,Wunderground v.1.15,2013-06-06 18:43:00,
2013-06-06 14:48:00,75.1,71.0,29.81,South,189,4.0,6.0,87,0.00,,,0.03,Wunderground v.1.15,2013-06-06 18:48:00,
2013-06-06 14:53:00,75.1,71.0,29.81,SSW,202,1.0,6.0,87,0.00,,,0.03,Wunderground v.1.15,2013-06-06 18:53:00,
2013-06-06 14:58:00,75.0,70.5,29.81,SW,225,4.0,5.0,86,0.00,,,0.03,Wunderground v.1.15,2013-06-06 18:58:00,
2013-06-06 15:03:00,75.1,71.0,29.81,SSW,206,4.0,6.0,87,0.00,,,0.03,Wunderground v.1.15,2013-06-06 19:03:00,
2013-06-06 15:08:00,75.1,70.6,29.81,SSW,208,2.0,6.0,86,0.00,,,0.03,Wunderground v.1.15,2013-06-06 19:08:00,
2013-06-06 15:13:00,75.2,71.1,29.81,SSW,208,3.0,6.0,87,0.00,,,0.03,Wunderground v.1.15,2013-06-06 19:13:00,
2013-06-06 15:18:00,75.3,70.8,29.81,SSW,205,4.0,6.0,86,0.00,,,0.03,Wunderground v.1.15,2013-06-06 19:18:00,
2013-06-06 15:23:00,75.4,70.9,29.80,SSW,204,3.0,6.0,86,0.00,,,0.03,Wunderground v.1.15,2013-06-06 19:23:00,
2013-06-06 15:28:00,75.4,70.9,29.80,SSW,204,2.0,5.0,86,0.00,,,0.03,Wunderground v.1.15,2013-06-06 19:28:00,
2013-06-06 15:33:00,75.5,71.0,29.80,SSW,204,2.0,5.0,86,0.00,,,0.03,Wunderground v.1.15,2013-06-06 19:33:00,
2013-06-06 15:38:00,75.6,71.1,29.80,SSW,204,1.0,5.0,86,0.00,,,0.03,Wunderground v.1.15,2013-06-06 19:38:00,
2013-06-06 15:43:00,75.7,70.9,29.80,SSW,205,1.0,2.0,85,0.00,,,0.03,Wunderground v.1.15,2013-06-06 19:43:00,
2013-06-06 15:48:00,75.9,71.1,29.80,SSW,205,3.0,5.0,85,0.00,,,0.03,Wunderground v.1.15,2013-06-06 19:48:00,
2013-06-06 15:53:00,75.9,70.4,29.79,SSW,205,0.0,1.0,83,0.00,,,0.03,Wunderground v.1.15,2013-06-06 19:53:00,
2013-06-06 15:58:00,76.0,70.5,29.79,SSW,205,0.0,5.0,83,0.00,,,0.03,Wunderground v.1.15,2013-06-06 19:58:00,
2013-06-06 16:03:00,76.0,70.5,29.79,SSW,205,0.0,1.0,83,0.00,,,0.03,Wunderground v.1.15,2013-06-06 20:03:00,
2013-06-06 16:08:00,76.1,70.9,29.79,SSW,205,0.0,4.0,84,0.00,,,0.03,Wunderground v.1.15,2013-06-06 20:08:00,
2013-06-06 16:13:00,76.3,70.8,29.79,SSW,205,0.0,1.0,83,0.00,,,0.03,Wunderground v.1.15,2013-06-06 20:13:00,
2013-06-06 16:18:00,76.4,70.9,29.78,SSW,205,3.0,5.0,83,0.00,,,0.03,Wunderground v.1.15,2013-06-06 20:18:00,
2013-06-06 16:24:00,76.3,71.1,29.78,SSW,205,3.0,3.0,84,0.00,,,0.03,Wunderground v.1.15,2013-06-06 20:24:00,
2013-06-06 16:29:00,76.4,71.2,29.79,SSW,205,2.0,4.0,84,0.00,,,0.03,Wunderground v.1.15,2013-06-06 20:29:00,
2013-06-06 16:34:00,76.3,71.1,29.79,SSW,205,3.0,4.0,84,0.00,,,0.03,Wunderground v.1.15,2013-06-06 20:34:00,
2013-06-06 16:39:00,76.3,71.1,29.79,SSW,205,2.0,4.0,84,0.00,,,0.03,Wunderground v.1.15,2013-06-06 20:39:00,
2013-06-06 16:44:00,76.3,70.8,29.79,SSW,205,4.0,5.0,83,0.00,,,0.03,Wunderground v.1.15,2013-06-06 20:44:00,
2013-06-06 16:49:00,76.2,71.0,29.78,SSW,205,4.0,5.0,84,0.00,,,0.03,Wunderground v.1.15,2013-06-06 20:49:00,
2013-06-06 16:54:00,76.1,71.3,29.78,SSW,205,4.0,4.0,85,0.00,,,0.03,Wunderground v.1.15,2013-06-06 20:54:00,
2013-06-06 16:59:00,76.0,70.8,29.78,SSW,205,3.0,4.0,84,0.00,,,0.03,Wunderground v.1.15,2013-06-06 20:59:00,
2013-06-06 17:04:00,76.0,70.8,29.78,SW,219,2.0,3.0,84,0.00,,,0.03,Wunderground v.1.15,2013-06-06 21:04:00,
2013-06-06 17:09:00,75.9,70.7,29.78,SSW,201,6.0,7.0,84,0.00,,,0.03,Wunderground v.1.15,2013-06-06 21:09:00,
2013-06-06 17:14:00,74.4,69.9,29.79,South,184,12.0,12.0,86,1.02,,,0.06,Wunderground v.1.15,2013-06-06 21:14:00,
2013-06-06 17:19:00,72.6,69.5,29.79,South,169,6.0,12.0,90,1.11,,,0.14,Wunderground v.1.15,2013-06-06 21:19:00,
2013-06-06 17:24:00,71.5,69.1,29.79,South,180,3.0,6.0,92,0.92,,,0.20,Wunderground v.1.15,2013-06-06 21:24:00,
2013-06-06 17:29:00,70.8,68.7,29.79,South,180,6.0,9.0,93,0.99,,,0.28,Wunderground v.1.15,2013-06-06 21:29:00,
2013-06-06 17:34:00,70.3,68.2,29.79,South,174,6.0,9.0,93,0.60,,,0.35,Wunderground v.1.15,2013-06-06 21:34:00,
2013-06-06 17:39:00,69.9,68.1,29.79,South,180,3.0,9.0,94,0.35,,,0.39,Wunderground v.1.15,2013-06-06 21:39:00,
2013-06-06 17:45:00,69.7,67.9,29.78,South,180,2.0,4.0,94,0.35,,,0.42,Wunderground v.1.15,2013-06-06 21:45:00,
2013-06-06 17:50:00,69.5,68.0,29.78,South,180,3.0,4.0,95,0.25,,,0.44,Wunderground v.1.15,2013-06-06 21:50:00,
2013-06-06 17:55:00,69.4,67.9,29.78,South,180,0.0,2.0,95,0.28,,,0.46,Wunderground v.1.15,2013-06-06 21:55:00,
2013-06-06 18:00:00,69.5,68.3,29.78,South,180,0.0,2.0,96,0.40,,,0.48,Wunderground v.1.15,2013-06-06 22:00:00,
2013-06-06 18:05:00,69.5,68.3,29.78,South,180,0.0,0.0,96,0.26,,,0.50,Wunderground v.1.15,2013-06-06 22:05:00,
2013-06-06 18:10:00,69.6,68.4,29.77,South,180,0.0,0.0,96,0.13,,,0.51,Wunderground v.1.15,2013-06-06 22:10:00,
2013-06-06 18:15:00,69.7,68.5,29.77,NNW,339,0.0,0.0,96,0.11,,,0.52,Wunderground v.1.15,2013-06-06 22:15:00,
2013-06-06 18:20:00,69.8,68.6,29.77,NNW,339,0.0,0.0,96,0.10,,,0.52,Wunderground v.1.15,2013-06-06 22:20:00,
2013-06-06 18:25:00,69.9,69.0,29.77,NNW,339,0.0,0.0,97,0.05,,,0.52,Wunderground v.1.15,2013-06-06 22:25:00,
2013-06-06 18:30:00,69.9,68.7,29.76,NNW,339,0.0,0.0,96,0.04,,,0.52,Wunderground v.1.15,2013-06-06 22:30:00,
2013-06-06 18:35:00,70.0,69.1,29.76,NNW,339,0.0,0.0,97,0.00,,,0.53,Wunderground v.1.15,2013-06-06 22:35:00,
2013-06-06 18:40:00,70.1,69.2,29.76,NNW,339,0.0,0.0,97,0.00,,,0.53,Wunderground v.1.15,2013-06-06 22:40:00,
2013-06-06 18:45:00,70.1,68.9,29.76,NNW,339,0.0,0.0,96,0.00,,,0.53,Wunderground v.1.15,2013-06-06 22:45:00,
2013-06-06 18:50:00,70.0,68.8,29.75,NNW,339,0.0,0.0,96,0.00,,,0.53,Wunderground v.1.15,2013-06-06 22:50:00,
2013-06-06 18:55:00,70.0,68.8,29.76,NNW,339,0.0,0.0,96,0.00,,,0.53,Wunderground v.1.15,2013-06-06 22:55:00,
2013-06-06 19:00:00,70.0,68.8,29.76,NNW,339,0.0,0.0,96,0.00,,,0.53,Wunderground v.1.15,2013-06-06 23:00:00,
2013-06-06 19:05:00,70.1,69.2,29.76,NNW,334,0.0,2.0,97,0.00,,,0.54,Wunderground v.1.15,2013-06-06 23:05:00,
2013-06-06 19:10:00,70.2,69.3,29.76,NNW,333,0.0,2.0,97,0.00,,,0.54,Wunderground v.1.15,2013-06-06 23:10:00,
2013-06-06 19:15:00,70.1,69.2,29.75,NNW,331,0.0,0.0,97,0.00,,,0.54,Wunderground v.1.15,2013-06-06 23:15:00,
2013-06-06 19:20:00,70.1,69.2,29.75,NNW,331,0.0,0.0,97,0.00,,,0.54,Wunderground v.1.15,2013-06-06 23:20:00,
2013-06-06 19:25:00,70.2,69.3,29.75,NNW,331,0.0,0.0,97,0.00,,,0.54,Wunderground v.1.15,2013-06-06 23:25:00,
2013-06-06 19:30:00,70.1,69.2,29.75,NNW,331,0.0,0.0,97,0.00,,,0.54,Wunderground v.1.15,2013-06-06 23:30:00,
2013-06-06 19:35:00,70.1,68.9,29.75,NNW,331,0.0,0.0,96,0.00,,,0.54,Wunderground v.1.15,2013-06-06 23:35:00,
2013-06-06 19:40:00,70.0,68.8,29.75,NNW,331,0.0,0.0,96,0.00,,,0.54,Wunderground v.1.15,2013-06-06 23:40:00,
2013-06-06 19:45:00,69.9,69.0,29.75,NNW,331,0.0,0.0,97,0.00,,,0.54,Wunderground v.1.15,2013-06-06 23:45:00,
2013-06-06 19:50:00,69.9,69.0,29.75,NNW,331,0.0,0.0,97,0.00,,,0.54,Wunderground v.1.15,2013-06-06 23:50:00,
2013-06-06 19:55:00,69.9,69.0,29.75,NNW,331,0.0,0.0,97,0.00,,,0.54,Wunderground v.1.15,2013-06-06 23:55:00,
2013-06-06 20:00:00,69.9,69.0,29.75,NNW,331,0.0,0.0,97,0.00,,,0.55,Wunderground v.1.15,2013-06-07 00:00:00,
2013-06-06 20:05:00,69.9,69.0,29.75,NNW,331,0.0,0.0,97,0.00,,,0.55,Wunderground v.1.15,2013-06-07 00:05:00,
2013-06-06 20:10:00,69.8,68.9,29.75,NNW,331,0.0,0.0,97,0.00,,,0.55,Wunderground v.1.15,2013-06-07 00:10:00,
2013-06-06 20:16:00,69.8,68.9,29.75,NNW,331,0.0,0.0,97,0.00,,,0.55,Wunderground v.1.15,2013-06-07 00:16:00,
2013-06-06 20:21:00,69.9,69.0,29.75,NNW,331,0.0,0.0,97,0.04,,,0.56,Wunderground v.1.15,2013-06-07 00:21:00,
2013-06-06 20:26:00,69.8,68.9,29.75,NNW,331,0.0,0.0,97,0.04,,,0.56,Wunderground v.1.15,2013-06-07 00:26:00,
2013-06-06 20:31:00,69.8,68.9,29.75,NNW,331,0.0,0.0,97,0.05,,,0.57,Wunderground v.1.15,2013-06-07 00:31:00,
2013-06-06 20:36:00,69.8,68.9,29.75,NNW,331,0.0,0.0,97,0.05,,,0.57,Wunderground v.1.15,2013-06-07 00:36:00,
2013-06-06 20:42:00,69.8,68.9,29.75,NNW,331,0.0,0.0,97,0.12,,,0.59,Wunderground v.1.15,2013-06-07 00:42:00,
2013-06-06 20:47:00,69.7,68.8,29.75,NNW,331,0.0,0.0,97,0.11,,,0.59,Wunderground v.1.15,2013-06-07 00:47:00,
2013-06-06 20:52:00,69.8,68.9,29.74,NNW,331,0.0,0.0,97,0.11,,,0.60,Wunderground v.1.15,2013-06-07 00:52:00,
2013-06-06 20:57:00,69.7,68.8,29.74,NNW,331,0.0,0.0,97,0.08,,,0.61,Wunderground v.1.15,2013-06-07 00:57:00,
2013-06-06 21:02:00,69.7,68.8,29.74,NNW,331,0.0,0.0,97,0.10,,,0.62,Wunderground v.1.15,2013-06-07 01:02:00,
2013-06-06 21:07:00,69.8,68.9,29.74,NNW,331,0.0,0.0,97,0.09,,,0.62,Wunderground v.1.15,2013-06-07 01:07:00,
2013-06-06 21:12:00,69.7,68.8,29.74,NNW,331,0.0,0.0,97,0.12,,,0.63,Wunderground v.1.15,2013-06-07 01:12:00,
2013-06-06 21:17:00,69.8,68.9,29.74,NNW,331,0.0,0.0,97,0.12,,,0.64,Wunderground v.1.15,2013-06-07 01:17:00,
2013-06-06 21:22:00,69.7,68.8,29.74,NNW,331,0.0,0.0,97,0.09,,,0.65,Wunderground v.1.15,2013-06-07 01:22:00,
2013-06-06 21:27:00,69.7,68.8,29.74,NNW,331,0.0,0.0,97,0.09,,,0.66,Wunderground v.1.15,2013-06-07 01:27:00,
2013-06-06 21:32:00,69.7,68.8,29.74,NNW,331,0.0,0.0,97,0.08,,,0.66,Wunderground v.1.15,2013-06-07 01:32:00,
2013-06-06 21:37:00,69.8,68.9,29.74,NNW,331,0.0,0.0,97,0.05,,,0.66,Wunderground v.1.15,2013-06-07 01:37:00,
2013-06-06 21:42:00,69.8,68.9,29.73,NNW,331,0.0,0.0,97,0.05,,,0.67,Wunderground v.1.15,2013-06-07 01:42:00,
2013-06-06 21:47:00,69.7,68.8,29.74,NNW,331,0.0,0.0,97,0.05,,,0.67,Wunderground v.1.15,2013-06-07 01:47:00,
2013-06-06 21:52:00,69.7,68.8,29.73,NNW,334,0.0,0.0,97,0.04,,,0.67,Wunderground v.1.15,2013-06-07 01:52:00,
2013-06-06 21:57:00,69.6,68.7,29.73,NNW,334,2.0,2.0,97,0.00,,,0.67,Wunderground v.1.15,2013-06-07 01:57:00,
2013-06-06 22:02:00,69.6,68.7,29.73,NNW,334,0.0,2.0,97,0.00,,,0.67,Wunderground v.1.15,2013-06-07 02:02:00,
2013-06-06 22:07:00,69.5,68.6,29.73,NNW,336,0.0,0.0,97,0.00,,,0.67,Wunderground v.1.15,2013-06-07 02:07:00,
2013-06-06 22:13:00,69.5,68.6,29.73,NNW,336,0.0,0.0,97,0.00,,,0.67,Wunderground v.1.15,2013-06-07 02:13:00,
2013-06-06 22:18:00,69.5,68.6,29.73,NNW,336,0.0,0.0,97,0.00,,,0.67,Wunderground v.1.15,2013-06-07 02:18:00,
2013-06-06 22:23:00,69.5,68.6,29.73,NNW,336,0.0,0.0,97,0.00,,,0.68,Wunderground v.1.15,2013-06-07 02:23:00,
2013-06-06 22:28:00,69.4,68.5,29.73,NNW,336,0.0,0.0,97,0.00,,,0.68,Wunderground v.1.15,2013-06-07 02:28:00,
2013-06-06 22:33:00,69.4,68.5,29.73,NNW,336,0.0,0.0,97,0.00,,,0.68,Wunderground v.1.15,2013-06-07 02:33:00,
2013-06-06 22:38:00,69.4,68.5,29.73,NNW,336,0.0,0.0,97,0.04,,,0.69,Wunderground v.1.15,2013-06-07 02:38:00,
2013-06-06 22:43:00,69.4,68.5,29.73,NNW,336,0.0,0.0,97,0.04,,,0.69,Wunderground v.1.15,2013-06-07 02:43:00,
2013-06-06 22:48:00,69.3,68.4,29.73,NNW,336,0.0,0.0,97,0.04,,,0.69,Wunderground v.1.15,2013-06-07 02:48:00,
2013-06-06 22:53:00,69.3,68.4,29.72,NNW,336,0.0,5.0,97,0.04,,,0.70,Wunderground v.1.15,2013-06-07 02:53:00,
2013-06-06 22:58:00,69.3,68.4,29.72,NNW,336,0.0,0.0,97,0.04,,,0.70,Wunderground v.1.15,2013-06-07 02:58:00,
2013-06-06 23:03:00,69.3,68.4,29.72,NNW,336,0.0,4.0,97,0.04,,,0.70,Wunderground v.1.15,2013-06-07 03:03:00,
2013-06-06 23:08:00,69.3,68.4,29.72,NNW,336,2.0,4.0,97,0.04,,,0.70,Wunderground v.1.15,2013-06-07 03:08:00,
2013-06-06 23:13:00,69.2,68.3,29.72,NNW,336,0.0,4.0,97,0.00,,,0.71,Wunderground v.1.15,2013-06-07 03:13:00,
2013-06-06 23:18:00,69.2,68.3,29.71,NNW,336,4.0,4.0,97,0.00,,,0.71,Wunderground v.1.15,2013-06-07 03:18:00,
2013-06-06 23:23:00,69.2,68.3,29.71,NE,54,4.0,5.0,97,0.00,,,0.71,Wunderground v.1.15,2013-06-07 03:23:00,
2013-06-06 23:28:00,69.2,68.3,29.72,NE,50,2.0,3.0,97,0.00,,,0.72,Wunderground v.1.15,2013-06-07 03:28:00,
2013-06-06 23:33:00,69.1,68.2,29.72,NE,54,1.0,3.0,97,0.00,,,0.72,Wunderground v.1.15,2013-06-07 03:33:00,
2013-06-06 23:38:00,69.1,68.2,29.72,NE,35,3.0,5.0,97,0.00,,,0.72,Wunderground v.1.15,2013-06-07 03:38:00,
2013-06-06 23:43:00,69.1,68.2,29.71,NE,47,2.0,6.0,97,0.00,,,0.72,Wunderground v.1.15,2013-06-07 03:43:00,
2013-06-06 23:46:00,74.5,73.0,30.11,ENE,58,0.0,1.0,95,0.29,,,0.11,Wunderground v.1.15,2013-06-07 03:46:00,
2013-06-06 23:47:00,74.5,73.0,30.11,ENE,58,0.0,1.0,95,0.29,,,0.11,Wunderground v.1.15,2013-06-07 03:47:00,
2013-06-06 23:48:00,69.1,68.2,29.71,NE,53,2.0,4.0,97,0.00,,,0.72,Wunderground v.1.15,2013-06-07 03:48:00,
2013-06-06 23:49:00,74.5,73.0,30.12,ENE,58,0.0,1.0,95,0.31,,,0.12,Wunderground v.1.15,2013-06-07 03:49:00,
2013-06-06 23:50:00,74.5,73.0,30.12,ENE,58,0.0,0.0,95,0.27,,,0.13,Wunderground v.1.15,2013-06-07 03:50:00,
2013-06-06 23:51:00,74.6,73.1,30.12,ENE,58,0.0,0.0,95,0.27,,,0.13,Wunderground v.1.15,2013-06-07 03:51:00,
2013-06-06 23:52:00,74.6,73.4,30.12,ENE,58,0.0,0.0,96,0.33,,,0.01,Wunderground v.1.15,2013-06-07 03:52:00,
2013-06-06 23:53:00,69.0,68.1,29.71,NE,53,4.0,4.0,97,0.00,,,0.73,Wunderground v.1.15,2013-06-07 03:53:00,
2013-06-06 23:58:00,69.0,68.1,29.71,NE,44,5.0,5.0,97,0.07,,,0.74,Wunderground v.1.15,2013-06-07 03:58:00,